timestamp,gas_concentrations,,corrected_fluxes_and_quality_flags,,,,,,,,,,storage_terms,,,turbulence,,,footprint,,
ISOdate,CO2_1_1_1,H2O_1_1_1,Tau_1_1_1,QcTau_1_1_1,H_1_1_1,QcH_1_1_1,LE_1_1_1, QcLE_1_1_1,Fc_1_1_1, QcFc_1_1_1,E_1_1_1, QcE_1_1_1,Sa_1_1_1,Sw_1_1_1,Sc_1_1_1,ustar_1_1_1,MO_length_1_1_1,ZL_1_1_1,Fetchmax_1_1_1,Fetch70_1_1_1,Fetch90_1_1_1
yyyymmddHHMM,[µmol+1mol_a-1],[mmol+1mol_a-1],[kg+1m-1s-2],[#],[W+1m-2],[#],[W+1m-2],[#],[µmol+1s-1m-2],[#],[mmol+1s-1m-2],[#],[W+1m-2],[W+1m-2],[µmol+1s-1m-2],[m+1s-1],[m],[#],[m],[m],[m]
201307210030,382.50393909039394,11.043443434527322,0.10140630700249337,0,-23.951195128518599,0,10.821015895861736,1,2.0150635634701368,0,0.24259589513557830,1,-9999.,-9999.,-9999.,0.29537094334886227,90.497699559823232,0.23868010021317046,94.180808508611349,172.19255538200341,257.97582555404909
201307210100,382.44599859555342,10.989776843484389,9.80745656040237640E-002,0,-25.961059753352579,0,10.954374092429044,0,2.7943545537244656,0,0.24557185292548694,0,-1.3409082755636970,-1.8757413881712175,-4.53985697545615588E-002,0.29048012966172143,79.397928725226549,0.27204739905434316,109.40446748396160,200.02625932594486,299.67578602699615
201307210130,383.82763288915703,11.578497060217240,0.13147422223214669,1,-24.151650953487096,0,16.405161524566875,1,2.4478852850441051,0,0.36773732559120526,1,-1.8592737499115590,20.579535944640547,1.0826222152708107,0.33635288380293921,132.49279907370075,0.16302772792946080,121.18316118211808,221.56146802785378,331.93945289127419
201307210200,384.97150992039320,11.498552189475548,6.78820677963430236E-002,0,-20.667567522909007,0,15.568142014120053,0,2.7156225418439619,0,0.34898030393241847,0,0.38097447057578315,-2.7943996014187462,0.89627519560156510,0.24168888885369097,57.442210378787784,0.37603009803356091,105.05932518190610,192.08195338572810,287.77376808647176
201307210230,385.06626044243916,11.277530200938545,3.51955474728895407E-002,0,-11.297540436932405,0,16.004949538640744,0,2.2057041975429024,0,0.35875417204679216,0,-1.1811506159985501,-7.7271520827268798,7.42520144563863921E-002,0.17400931361543015,39.215409398039718,0.55080388886822973,198.22421364192667,1891.0000000000000,9594.0000000000000
201307210300,384.23389495209835,11.206748052107205,0.10456687938979566,0,-14.958877363911295,1,43.826204696494891,1,3.7716853857895836,1,0.98273760935561905,1,8.8411551936333748,-2.4698939886915547,-0.65128691118259729,0.30016084607752014,151.99531114583547,0.14210964691716954,111.10797221163872,203.14080927310559,304.34194939315108
201307210330,383.01151982384499,10.584124662868573,0.12160575462101869,0,-13.949275672042297,0,33.920280540629555,0,6.1175560027495370,0,0.76092335602388306,0,9.7396808850851002,-21.686969369289244,-0.95512325399291331,0.32388018653125256,204.76769353683716,0.10548538994074384,103.17744583958850,188.64127775333912,282.61900901596425
201307210400,392.80844594865295,11.471719988628712,4.34986883558063087E-002,0,-5.0057620865510728,0,8.8983772889338226,1,6.9752947023644616,0,0.19953634650699076,1,-9.3456021150176927,30.977633609843831,7.6671554010245844,0.19358594558465633,121.87633832771836,0.17722882305438864,139.42776296174799,1188.0000000000000,5518.0000000000000
201307210430,391.00004714301150,11.392136472487040,4.35288092710269317E-002,0,-5.3980089575824213,0,8.3779300944535482,0,4.3145485826872543,0,0.18785377590464486,0,-1.5376235843298858,-2.7783089955357259,-1.4155813429230504,0.19362858915372791,113.09193638386994,0.19099504960886640,141.30376503005374,1219.0000000000000,5716.0000000000000
201307210500,391.84040447541980,11.448370189394618,1.36524435270746758E-002,0,-3.6122349442247623,0,6.9598857294876098,1,4.2259235165003810,0,0.15607891111421646,1,3.2339473616229233,1.9621643168716998,0.65757409271297618,0.10846031918026339,29.705665778394515,0.72713401413511103,184.72913158134122,1709.0000000000000,8463.0000000000000
201307210530,388.65156523383246,11.199109722550165,2.83056454309434380E-002,1,-8.4940051659840403,1,3.6852047133116090,0,2.3262174905809121,1,8.26739893186039798E-002,0,9.0490059056654797,-8.6813531061157807,-2.4915747399917918,0.15627926632516220,37.788134421871611,0.57160800157146718,33.029734384858578,254.00000000000000,1087.0000000000000
201307210600,386.85100736787916,11.005699383333429,1.94894723276720708E-002,0,-4.3381671166738469,0,7.6051416021098497,0,1.8365182472112591,1,0.17065228098320182,0,5.3377160677538882,-6.7303821000384492,-1.4059565853663238,0.12971409154304864,42.312105828641798,0.51049220021043218,128.79373344919259,1164.0000000000000,5655.0000000000000
201307210630,383.15842585953044,11.102001171184380,9.23329985342456194E-002,1,24.959624640704639,1,42.425656202549575,0,-5.5450062592480185,0,0.95255414559830587,0,13.994327887391121,3.3420353592126628,-2.8771856408187726,0.28264222611017215,-76.085664172753823,-0.28389053621135285,115.58055128490578,211.31811027497062,316.59303639328374
201307210700,380.54245811705198,10.165280282165268,0.36887166626987217,1,40.259134397982685,1,107.81506832197053,0,-8.3101681341401878,0,2.4214631952996637,0,7.4834368067522234,-32.459027688348094,-2.0358983743396788,0.56516601771879138,-377.06687231715335,-5.72842686159713982E-002,126.63445927286651,231.52817954009549,346.87140290923833
201307210730,378.01973645012481,9.7027719773724659,0.29793547783859881,0,32.314688574674882,0,96.112153074433820,0,-10.200177695718411,0,2.1594897868498730,0,9.4891853157859458,-15.996874074740099,-1.9604590543203697,0.50825190984532509,-341.63497399572611,-6.32253769201926580E-002,121.61656768342634,222.35387334015920,333.12662044426099
201307210800,375.96112811289845,9.9363589247441872,0.35630639581626244,0,35.772507394105915,0,110.37320705024686,0,-11.924159775277497,0,2.4804068476330938,0,4.6968131572913618,8.0729553149216571,-1.5988840296906484,0.55599587507623327,-404.07229911883536,-5.34557801836536284E-002,118.92095837404899,217.42543980212304,325.74292892610828
201307210830,372.69925579797217,9.8718772905265375,0.42337821055318059,0,102.14871336618562,0,152.95452059141243,0,-16.849113027336802,0,3.4401006577654720,0,18.934809674157581,-2.2201273901001795,-2.5259087013751227,0.60696684674001333,-184.09528901676109,-0.11733054178281235,130.26172511245235,238.15997835196302,356.80704600138267
201307210900,371.79312014557826,10.376906142644732,0.61529518350980994,0,175.12619186650767,0,188.72564339949682,0,-21.023105237106417,0,4.2489770292759781,0,23.974324570846747,17.305483875847703,-0.69905966416271803,0.73316029406427152,-189.25969276031270,-0.11412889709884105,116.33050998085309,212.68927395822053,318.64728944952878
201307210930,372.49351660448258,10.508214356710820,0.62695053418909164,0,182.29153962871982,0,200.05914151165931,0,-17.689453766533425,0,4.5061647185060600,0,10.498891269422078,4.4895854376077144,0.53939504166035168,0.74073633862957677,-187.50470685781022,-0.11519710817915549,127.66233672041029,233.40746733890336,349.68691848292605
201307211000,372.08589005683433,11.070250599792610,0.43980916079227295,1,257.20081239469471,0,213.60232282907435,0,-16.806504485198438,0,4.8147551314533050,0,17.130278513150049,19.146375970809039,-0.31300621069641654,0.62138639800645690,-78.444218144091948,-0.27535490200595253,114.74594906484758,209.79219123397857,314.30693161102261
201307211030,371.00897068520936,11.840470914632355,0.62647929929498936,0,277.70769698178532,0,203.46533799410022,0,-15.518324716223393,0,4.5910803052551792,0,24.346513809699140,26.113603037885412,-0.82387148754499662,0.74311083289393587,-124.28022064856287,-0.17380078573468299,114.89620854677305,210.06691348974215,314.71851561110583
201307211100,369.57048692115433,12.338172700544909,0.81517268026692735,0,287.83458365708287,0,202.76762142082879,0,-21.921802205760159,0,4.5757306394466228,0,1.9937704423386131,16.867979115716636,-1.1001721935101061,0.84786436757359962,-178.11975134223135,-0.12126673115829094,125.54835902062152,229.54244188508264,343.89640605325206
201307211130,368.24205865348807,12.820423273962579,0.33069060337153194,1,266.08854947350142,0,202.78774666712278,0,-20.122485860409164,0,4.5779275269004769,0,8.7999614605567267,16.307373532257813,-1.0140901828647459,0.54058115845974808,-49.924030570398280,-0.43265737467934740,92.570747696250450,169.24885071444899,253.56561954883045
201307211200,366.12970840157277,13.239822317632258,0.53857099295197974,1,289.96639333304449,0,278.72250270508204,0,-19.809672343543212,0,6.2948227921611046,0,9.7853880648030227,14.150147132659562,-1.6095739192603851,0.69056219861242585,-95.488538279450054,-0.22620515916566822,114.64971027431989,209.61623603110598,314.04331865388355
201307211230,364.74979065250750,13.095643840112515,0.31140860331164089,1,199.35699921182567,0,216.05398823592347,0,-23.531799442297228,0,4.8800033793574746,0,2.4594764729924745,-4.8606874277509196,-1.0507715241199560,0.52526646929050469,-61.108162058824014,-0.35347160301118830,104.20230508370256,190.51504731367086,285.42625726285996
201307211300,364.03509103235706,13.276604462954639,0.58559665773597158,0,259.50838393065249,0,265.90994934546694,0,-25.919610415375544,0,6.0087605179118917,0,10.191185529389898,6.0875421553662363,-0.54329005917218987,0.72094485369311978,-121.37223436228568,-0.17796492017709634,119.61941245803729,218.70243662815841,327.65610287079789
201307211330,364.34166062395877,13.377883025924660,0.35811206109040378,1,233.86789802598528,0,268.02744028815920,0,-27.646354692475143,0,6.0572115008960958,0,2.2840354361559823,3.4048081719803549,0.23291511497513806,0.56394972397681309,-64.455794656862054,-0.33511339228676218,107.04767450986914,195.71729010873725,293.22016494262323
201307211400,362.98592264831410,13.692506027463104,0.48382041948421395,1,349.05920171685142,1,275.36968601036006,0,-28.526054066458336,1,6.2242138472720159,0,3.9587005067195955,10.565965157697272,-1.0291124721453713,0.65582767048537272,-67.908454879127135,-0.31807526821876114,106.41560250078500,194.56166088710359,291.48882178540049
201307211430,360.38462841828994,13.866372584648136,0.67923589778998517,1,382.63810171691210,0,308.21121243541967,0,-23.858054249029973,0,6.9669965947287693,0,1.5205565821021272,5.8349876270309551,-1.9733791119969668,0.77732980689006592,-103.12832219328035,-0.20944779805025682,126.19797694776770,230.73015064091726,345.67581019836433
201307211500,361.38948746976888,14.006429766382581,0.32942149473734045,1,264.35513877946164,0,254.13492054149674,0,-14.387280821238376,0,5.7490794034196435,0,17.731539511927050,4.6832628160812977,0.76012017145930477,0.54213132731285174,-50.635718964171161,-0.42657634653679427,108.02995107031933,197.51320494228102,295.91077262180193
201307211530,360.77736356131146,14.122054099505494,0.32845930352044944,0,79.559193985557783,1,197.35597945407488,1,-13.244460648123557,0,4.4608951853722081,1,-19.124664047228816,3.8803526672503477,-0.46433672079987631,0.54059319730822708,-166.80383539702675,-0.12949342530756353,130.08896056541167,237.84410965954646,356.33381714133083
201307211600,359.33678911601640,14.413887581151544,0.19329109126594901,1,35.350124260227538,0,114.22957939594122,0,-7.5704857262428185,0,2.5819082487868283,0,-0.50180063489574889,9.7913139291797453,-1.0924555931802165,0.41478458174713601,-169.53887649578832,-0.12740440686202487,110.34851022471035,201.75227054302309,302.26166535060275
201307211630,358.73193281567018,14.511124861816766,0.31752464730999003,0,94.909954381972682,0,200.30980466659429,0,-12.797637979465591,0,4.5288111446729831,0,6.3165915834939508,3.2575314139155815,-0.45813135833214907,0.53195950397431324,-133.18361957751102,-0.16218210669240071,120.80628200491660,220.87241269248091,330.90712243656378
201307211700,357.74186350832940,14.548876208523762,0.28843046401857508,0,85.930008600249124,0,137.29238210030556,0,-13.124329418328946,0,3.1042679168767453,0,1.6208559501531128,1.2640776751930787,-0.74958289197196926,0.50711377019029824,-127.42313572841928,-0.16951395738711628,126.35900966346053,231.02456980395425,346.11690375478958
201307211730,358.12199469891948,14.693554229470559,0.16290715575173806,0,16.295973778583477,0,62.829675546739814,0,-7.5996042532410701,0,1.4203952808110822,0,-3.6050466542994992,4.8482306587613344,0.28797754413677640,0.38100558401138329,-284.98404599958184,-7.57937165367906091E-002,110.91372762282005,202.78566821361088,303.80988337085398
201307211800,357.36494496126863,15.082550272832874,0.37293969243282116,0,54.927894332131245,0,79.511115703881103,0,-9.4848757528037577,0,1.7975225518216729,0,0.11059245248808471,13.035475138832210,-0.57352531913712423,0.57651571950521452,-292.94357677836831,-7.37343355930342448E-002,115.22796324966610,210.67346689436630,315.62724313973445
201307211830,357.99464132661114,15.232776393896382,0.31274939668343021,0,24.338913323414062,0,41.154554991445792,1,-4.6003025987087032,0,0.93007736272683883,1,-7.6740709995230088,5.0399092130793015,0.47742989594040386,0.52774894616029888,-507.00767151521109,-4.26029056630397862E-002,114.08716710611743,208.58772770569050,312.50242576365582
201307211900,358.16010497903972,15.760611610553772,0.32613863147035516,0,1.79839825596198348E-003,2,21.764084830309656,0,-0.55118367438653215,1,0.49159579578416646,0,-12.352057047464061,17.747809122908052,0.12566569672497979,0.53852515719687977,-7290100.8863548515,-2.96292195906774249E-006,113.47811266342399,207.47418193649531,310.83413128679501
201307211930,358.60401197881140,16.037286889872124,0.39853800624658936,0,-31.315212319889937,0,14.506390890582246,0,3.7862547817786947,0,0.32732304054543016,0,-23.953620372837076,9.3482539005672347,0.33843037606996368,0.59419774285094917,562.45932531011908,3.84027769262969693E-002,116.55367213723764,213.09728555401077,319.25856516946982
201307212000,360.88600123617334,15.979883616368193,0.14620242723026911,0,-33.970406448494735,0,1.5079560428352334,1,4.5533681997051714,1,3.39968755623288529E-002,1,-19.581296995054576,-1.9469658568175121,1.7449604798435401,0.35935305958047992,114.68098720788842,0.18834857046394721,102.85394576974387,188.04981645060772,281.73289220611196
201307212030,363.64529521467023,15.934012105963784,0.25022326556308577,0,-36.719396828983832,0,-0.75833510543747706,1,5.2906895876439828,0,-1.70871917883229432E-002,1,-12.886069423748882,-1.5598031592582651,2.1141425223435526,0.46964744684231846,236.83166462987458,9.12040205170914497E-002,113.36779674849301,207.27248926054497,310.53195890500376
201307212100,365.82145369323683,16.112192920223919,0.29260554817786588,0,-48.046043610338515,0,-2.8139494643800522,2,9.1121025182406292,0,-6.33786862006930490E-002,2,-9.7939634390906853,6.0721034378437535,1.6703046113633671,0.50743414071749060,228.34450596296909,9.45939115500457894E-002,107.83664636326756,197.15978228641617,295.38128108127637
201307212130,367.57267564823536,16.187522416769319,0.21867065450296524,0,-43.409361724952561,0,-5.8332112427495098,0,11.649349109533679,0,-0.13132907772015459,0,-9.3378789536226279,2.5721265397190112,1.3462373926105415,0.43833104753048657,162.91821917389080,0.13258185677161888,114.83648179548862,209.95771393952390,314.55491478611555
201307212200,368.20316309294719,16.203070989687596,0.24634454730579625,0,-39.853464152200324,0,-6.1610905696844469,0,11.565767937946029,0,-0.13867962635267739,0,-5.2792863881834284,0.53145801579537033,0.48507616952111815,0.46505382630525605,211.92799476426322,0.10192140978838887,114.42744780220103,209.20986934509301,313.43450730853067
201307212230,368.70574665086514,16.171721203975672,0.19024942606582251,0,-35.667032415742447,0,-10.115872193085300,0,8.5378034796257651,0,-0.22763601092518462,0,-6.3250934370079257,-1.0726878755118183,0.38697659995612771,0.40852568520447863,160.49921505218623,0.13458009743522281,114.55568739123666,209.44433221376931,313.78577541053636
201307212300,368.96013023313185,16.133172146808061,0.24690002732702299,0,-37.419489561976000,0,-10.418255808025719,0,8.8572393049833913,0,-0.23439154938522505,0,-4.8878711606282534,-1.3197617168047151,0.19593759705667124,0.46530630605863649,225.98018954602566,9.55835997986925479E-002,117.53931177161951,214.89934915929911,321.95838482917475
201307212330,369.02455999791795,16.166857140900277,0.25873533526414672,0,-41.659874667825285,0,-14.713156048396746,0,10.663343718421103,0,-0.33100415113237841,0,-1.0421531573701046,1.1533999419986081,4.96315221458901029E-002,0.47630797065964958,217.71054808825571,9.92143016940262024E-002,107.39126161527273,196.34547691890185,294.16130325487410
201307220000,369.91402389250408,16.204235186887644,0.23715287393396312,0,-41.337764608242026,0,-18.271996607357952,0,12.583655509544210,0,-0.41103410712022792,0,-1.9265348893725769,1.2797365962375045,0.68505300219168819,0.45605252072445862,192.52516330030767,0.11219312649696364,119.73418522316395,218.91227784770589,327.97048325575668
